Regional Weather Roundup
Issued by NWS

Home | Current Version | Previous Version | Text Only | Print | Product List | Glossary On
Versions: 1 2 3 4 5 6 7 8 9 10 11 12 13 14 15 16 17 18 19 20 21 22 23 24 25 26 27 28 29 30 31 32 33 34 35 36 37 38 39 40 41 42 43 44 45 46 47 48 49 50
883
ASUS43 KDMX 061708
RWRIA

WEATHER ROUNDUP FOR IOWA
NATIONAL WEATHER SERVICE DES MOINES IA
1200 PM CDT FRI MAY 06 2016

NOTE: "FAIR" INDICATES FEW OR NO CLOUDS BELOW 12,000 FEET WITH NO
SIGNIFICANT WEATHER AND/OR OBSTRUCTIONS TO VISIBILITY.

* - THESE STATIONS ARE NOT NWS STATIONS...THUS NOT UNDER NWS
QUALITY CONTROL.  THEY ALSO DO NOT REPORT WEATHER SUCH
AS PRECIPITATION OR FOG.

IAZ001>003-012>014-020>022-031>034-043>046-061800-
   NORTHWEST IOWA

CITY           SKY/WX    TMP DP  RH WIND       PRES   REMARKS
CARROLL *      SUNNY     81  43  26 SW21G30   29.97S
CHEROKEE *     SUNNY     79  50  36 SW14G23   29.94S
DENISON *      SUNNY     79  46  31 SW21      29.96S
LE MARS *      SUNNY     81  50  34 SW23G29   29.93S HX  80
ORANGE CITY *  SUNNY     81  50  34 SW24G33   29.92F HX  80
SHELDON *      SUNNY     81  48  32 SW21G30   29.90S HX  80
SIOUX CITY     SUNNY     81  50  33 SW20G28   29.95S HX  80
SPENCER        SUNNY     83  43  24 SW24G35   29.91F HX  81
STORM LAKE *   SUNNY     81  43  26 SW21G29   29.95F
$$

IAZ055>058-069>071-079>083-090>094-061800-
   SOUTHWEST IOWA

CITY           SKY/WX    TMP DP  RH WIND       PRES   REMARKS
ATLANTIC *     SUNNY     79  46  31 SW18      30.00S
AUDUBON *      SUNNY     81  39  22 SW18G24   30.00F
CLARINDA *       N/A     77  50  38 MISG      30.05S
COUNCIL BLFS * SUNNY     79  48  34 SW15      30.00F
CRESTON *      SUNNY     77  48  36 SW10      30.04S
HARLAN  *      SUNNY     79  43  27 SW18G26   30.02F
LAMONI         SUNNY     75  52  44 SW14      30.04S
RED OAK *      SUNNY     79  50  36 SW14G20   30.02S
SHENANDOAH *   SUNNY     79  48  34 SW16G22   30.02F
$$

IAZ047>049-059>061-072>074-084-061800-
   CENTRAL IOWA

CITY           SKY/WX    TMP DP  RH WIND       PRES   REMARKS
AMES           SUNNY     83  43  24 W16G25    29.97F HX  81
ANKENY *       SUNNY     79  50  36 SW8       29.98F
BOONE *        SUNNY     82  43  24 W17       29.96F HX  80
CHARITON *     SUNNY     77  50  38 SW6G13    30.02S
DES MOINES     MOSUNNY   81  46  29 W12       29.99F HX  80
GRINNELL*      SUNNY     77  46  33 W12G17    29.99F
KNOXVILLE *    SUNNY     77  46  33 SW10      29.99F
MARSHALLTOWN   SUNNY     79  49  34 W14G22    29.96F
NEWTON *       SUNNY     79  46  31 SW17      29.98F
PERRY *          N/A     82  41  23 W18G24    29.98F HX  80
$$

IAZ004>006-015-016-023>025-035-036-061800-
   NORTH CENTRAL IOWA

CITY           SKY/WX    TMP DP  RH WIND       PRES   REMARKS
ALGONA *       SUNNY     84  39  20 SW26G33   29.91F HX  81
CLARION *      SUNNY     84  41  21 W22G30    29.93F HX  81
ESTHERVILLE    SUNNY     81  45  28 SW22G33   29.90F HX  80
FORT DODGE *   SUNNY     81  50  34 W20G25    29.96S HX  80
MASON CITY     SUNNY     82  45  27 SW16      29.93F HX  80
FOREST CITY *  SUNNY     81  37  21 SW21      29.91F
WEBSTER CITY * SUNNY     84  43  23 W20G26    29.93F HX  82
IOWA FALLS *     N/A     82  43  24 W18G25    29.96F HX  80
$$

IAZ007>011-017>019-026>030-037>042-050>054-066-061800-
   NORTHEAST IOWA

CITY           SKY/WX    TMP DP  RH WIND       PRES   REMARKS
CEDAR RAPIDS   SUNNY     78  51  38 W12G20    29.95F
CHARLES CITY * SUNNY     84  41  21 W17G25    29.93F HX  81
CLINTON *      MOSUNNY   73  50  44 W13       29.96F
DECORAH *      SUNNY     84  43  23 W13G21    29.90F HX  82
DUBUQUE        SUNNY     75  48  38 W10G18    29.96F
MONTICELLO *   SUNNY     79  46  31 W9G15     29.94F
OELWEIN *      SUNNY     81  48  32 W14       29.94F HX  80
WATERLOO       SUNNY     81  47  30 W13       29.93F HX  80
$$

IAZ064-065-067-068-078-061800-
   EAST CENTRAL IOWA

CITY           SKY/WX    TMP DP  RH WIND       PRES   REMARKS
DAVENPORT      SUNNY     76  43  30 W12       29.99F
IOWA CITY      SUNNY     77  50  38 W10       29.98F
MT. PLEASANT * SUNNY     79  46  31 W9        30.00F
MUSCATINE *    SUNNY     77  48  36 W8        29.98F
QUAD CITIES    SUNNY     76  46  34 NW8       29.98F
$$

IAZ062-063-075>077-085>089-095>099-061800-
   SOUTHEAST IOWA

CITY           SKY/WX    TMP DP  RH WIND       PRES   REMARKS
BURLINGTON     SUNNY     74  48  39 W9G17     30.00F
FAIRFIELD *    SUNNY     77  46  33 SW14      30.00F
FORT MADISON * SUNNY     73  46  38 W9        30.02F
KEOKUK *       SUNNY     73  46  38 W10       30.01F
OSKALOOSA *      N/A     79  45  29 W13       30.00F
OTTUMWA        SUNNY     77  49  37 W14       30.00F
WASHINGTON *   SUNNY     79  48  34 W13G22    30.00F
$$

ABBREVIATIONS USED IN REMARKS
   TC - TEMPERATURES IN CELSIUS
  WCI - WIND CHILL INDEX
   HX - HEAT INDEX
  VSB - VISIBILITY
$$





USA.gov is the U.S. government's official web portal to all federal, state and local government web resources and services.